Coatesville, PA

12:56 AM EST on November 21, 2019 (GMT -0500)
Chester County Carlson

Weather History for KMQS - September, 2019

Change the Weather History Date:

Wednesday, September 25, 2019

  Actual Average (KILG) Record (KILG)
Temperature  
Mean Temperature 64 °F -  
Max Temperature 78 °F 71 °F 93 °F (1970)
Min Temperature 50 °F 53 °F 37 °F (1997)
Degree Days  
Heating Degree Days 1    
Growing Degree Days 14 (Base 50)    
Moisture  
Dew Point 50 °F    
Average Humidity 61    
Maximum Humidity 94    
Minimum Humidity 32    
Precipitation  
Precipitation 0.00 in - - ()
Sea Level Pressure  
Sea Level Pressure 29.92 in    
Wind  
Wind Speed 4 mph ()    
Max Wind Speed 10 mph    
Max Gust Speed 16 mph    
Visibility 10.0 miles    
Events      
Averages and records for this station are not official NWS values.
T = Trace of Precipitation, MM = Missing Value Source: Averaged Metar Reports

Daily Weather History Graph

Daily Weather History Graph

Search for Another Location

Airport or City:

Astronomy

Sep. 25, 2019 Rise Set
Actual Time 6:53 AM EDT 6:56 PM EDT
Civil Twilight 6:26 AM EDT 7:22 PM EDT
Nautical Twilight 5:55 AM EDT 7:54 PM EDT
Astronomical Twilight 5:23 AM EDT 8:26 PM EDT
Moon 2:44 AM EDT (9/25) 5:26 PM EDT (9/25)
Length of Visible Light 12h 56m
Length of Day
12h 02m
Waning Crescent, 14% of the Moon is Illuminated
Sep 25
Waning Crescent
Sep 28
New
Oct 5
First Quarter
Oct 13
Full
Oct 21
Last Quarter

Hourly Weather History & Observations

Time (EDT) Temp. Dew Point Humidity Pressure Visibility Wind Dir Wind Speed Gust Speed Precip Events Conditions
12:15 AM 59.0 °F 50.0 °F 72% 29.93 in 10.0 mi NW 5.8 mph - N/A   Clear
12:35 AM 59.0 °F 50.0 °F 72% 29.92 in 10.0 mi NW 6.9 mph - N/A   Clear
12:55 AM 59.0 °F 48.2 °F 67% 29.92 in 10.0 mi WNW 4.6 mph - N/A   Clear
1:15 AM 59.0 °F 48.2 °F 67% 29.92 in 10.0 mi WNW 3.5 mph - N/A   Clear
1:35 AM 57.2 °F 48.2 °F 72% 29.92 in 10.0 mi Calm Calm - N/A   Clear
1:55 AM 55.4 °F 50.0 °F 82% 29.92 in 10.0 mi Calm Calm - N/A   Clear
2:15 AM 53.6 °F 48.2 °F 82% 29.92 in 10.0 mi Calm Calm - N/A   Clear
2:35 AM 55.4 °F 50.0 °F 82% 29.92 in 10.0 mi WNW 3.5 mph - N/A   Clear
2:55 AM 53.6 °F 50.0 °F 88% 29.91 in 10.0 mi Calm Calm - N/A   Clear
3:15 AM 53.6 °F 50.0 °F 88% 29.91 in 10.0 mi North - - N/A   Clear
3:35 AM 53.6 °F 50.0 °F 88% 29.92 in 10.0 mi WNW 3.5 mph - N/A   Clear
3:55 AM 51.8 °F 50.0 °F 94% 29.92 in 10.0 mi West 4.6 mph - N/A   Clear
4:15 AM 53.6 °F 50.0 °F 88% 29.92 in 10.0 mi WNW 3.5 mph - N/A   Clear
4:35 AM 51.8 °F 48.2 °F 88% 29.94 in 10.0 mi West 4.6 mph - N/A   Clear
4:55 AM 51.8 °F 48.2 °F 88% 29.94 in 10.0 mi WNW 4.6 mph - N/A   Clear
5:15 AM 53.6 °F 48.2 °F 82% 29.94 in 10.0 mi WNW 3.5 mph - N/A   Clear
5:35 AM 53.6 °F 48.2 °F 82% 29.95 in 10.0 mi WNW 4.6 mph - N/A   Clear
5:55 AM 51.8 °F 48.2 °F 88% 29.95 in 10.0 mi West 5.8 mph - N/A   Clear
6:15 AM 53.6 °F 48.2 °F 82% 29.95 in 10.0 mi West 5.8 mph - N/A   Clear
6:35 AM 53.6 °F 50.0 °F 88% 29.96 in - West 5.8 mph - N/A   Clear
6:55 AM 50.0 °F 48.2 °F 94% 29.96 in 10.0 mi West 5.8 mph - N/A   Clear
7:15 AM 53.6 °F 50.0 °F 88% 29.96 in 10.0 mi West 4.6 mph - N/A   Clear
7:35 AM 53.6 °F 50.0 °F 88% 29.96 in 10.0 mi West 4.6 mph - N/A   Clear
7:55 AM 57.2 °F 51.8 °F 82% 29.96 in 10.0 mi West 4.6 mph - N/A   Clear
8:15 AM 59.0 °F 53.6 °F 82% 29.97 in 10.0 mi West 4.6 mph - N/A   Clear
8:35 AM 60.8 °F 53.6 °F 77% 29.96 in 10.0 mi West 5.8 mph - N/A   Clear
8:55 AM 62.6 °F 53.6 °F 72% 29.97 in 10.0 mi West 3.5 mph - N/A   Clear
9:15 AM 66.2 °F 51.8 °F 60% 29.97 in 10.0 mi WNW 4.6 mph - N/A   Clear
9:35 AM 68.0 °F 51.8 °F 56% 29.98 in 10.0 mi West 4.6 mph - N/A   Clear
9:55 AM 68.0 °F 51.8 °F 56% 29.98 in 10.0 mi WNW 5.8 mph - N/A   Clear
10:15 AM 69.8 °F 51.8 °F 53% 29.97 in 10.0 mi West 6.9 mph - N/A   Clear
10:35 AM 71.6 °F 51.8 °F 50% 29.97 in 10.0 mi WNW 8.1 mph - N/A   Clear
10:55 AM 71.6 °F 51.8 °F 50% 29.97 in 10.0 mi WSW 5.8 mph - N/A   Clear
11:15 AM 71.6 °F 50.0 °F 46% 29.97 in 10.0 mi Variable 6.9 mph - N/A   Clear
11:35 AM 73.4 °F 50.0 °F 44% 29.97 in 10.0 mi NW 10.4 mph - N/A   Clear
11:55 AM 73.4 °F 50.0 °F 44% 29.96 in 10.0 mi Variable 5.8 mph 12.7 mph N/A   Clear
12:35 PM 75.2 °F 46.4 °F 36% 29.95 in 10.0 mi WNW 8.1 mph 15.0 mph N/A   Clear
12:55 PM 75.2 °F 48.2 °F 38% 29.94 in 10.0 mi Variable 5.8 mph 15.0 mph N/A   Clear
1:15 PM 75.2 °F 48.2 °F 38% 29.94 in 10.0 mi NW 4.6 mph 13.8 mph N/A   Clear
1:35 PM 77.0 °F 48.2 °F 36% 29.92 in 10.0 mi NNW 8.1 mph 16.1 mph N/A   Clear
1:55 PM 77.0 °F 48.2 °F 36% 29.91 in 10.0 mi Variable 5.8 mph - N/A   Clear
2:15 PM 77.0 °F 46.4 °F 34% 29.90 in 10.0 mi WNW 9.2 mph - N/A   Clear
2:35 PM 77.0 °F 46.4 °F 34% 29.90 in 10.0 mi West 6.9 mph - N/A   Clear
2:55 PM 77.0 °F 46.4 °F 34% 29.89 in 10.0 mi NW 8.1 mph 15.0 mph N/A   Clear
3:15 PM 77.0 °F 46.4 °F 34% 29.88 in 10.0 mi West 10.4 mph - N/A   Clear
3:35 PM 78.8 °F 46.4 °F 32% 29.88 in 10.0 mi WNW 9.2 mph 15.0 mph N/A   Clear
3:55 PM 77.0 °F 44.6 °F 32% 29.87 in 10.0 mi Variable 3.5 mph - N/A   Clear
4:15 PM 77.0 °F 46.4 °F 34% 29.87 in 10.0 mi Variable 5.8 mph - N/A   Clear
4:35 PM 77.0 °F 46.4 °F 34% 29.87 in 10.0 mi WNW 8.1 mph - N/A   Clear
4:55 PM 77.0 °F 48.2 °F 36% 29.87 in 10.0 mi Variable 5.8 mph - N/A   Clear
5:15 PM 77.0 °F 46.4 °F 34% 29.87 in 10.0 mi Variable 5.8 mph - N/A   Clear
5:35 PM 77.0 °F 48.2 °F 36% 29.88 in 10.0 mi West 4.6 mph - N/A   Clear
5:55 PM 75.2 °F 48.2 °F 38% 29.87 in 10.0 mi Variable 4.6 mph - N/A   Clear
6:15 PM 75.2 °F 48.2 °F 38% 29.87 in 10.0 mi Calm Calm - N/A   Clear
6:35 PM 73.4 °F 50.0 °F 44% 29.88 in 10.0 mi Calm Calm - N/A   Clear
6:55 PM 71.6 °F 51.8 °F 50% 29.88 in 10.0 mi Calm Calm - N/A   Clear
7:15 PM 69.8 °F 51.8 °F 53% 29.89 in 10.0 mi Calm Calm - N/A   Clear
7:35 PM 68.0 °F 51.8 °F 56% 29.89 in 10.0 mi Calm Calm - N/A   Clear
7:55 PM 68.0 °F 51.8 °F 56% 29.89 in 10.0 mi Calm Calm - N/A   Clear
8:15 PM 66.2 °F 51.8 °F 60% 29.89 in 10.0 mi Calm Calm - N/A   Clear
8:35 PM 68.0 °F 51.8 °F 56% 29.89 in 10.0 mi WSW 3.5 mph - N/A   Clear
8:55 PM 68.0 °F 51.8 °F 56% 29.90 in 10.0 mi Variable 3.5 mph - N/A   Clear
9:15 PM 66.2 °F 51.8 °F 60% 29.90 in 10.0 mi SW 4.6 mph - N/A   Clear
9:35 PM 66.2 °F 51.8 °F 60% 29.90 in 10.0 mi Variable 4.6 mph - N/A   Clear
9:55 PM 66.2 °F 51.8 °F 60% 29.90 in 10.0 mi Calm Calm - N/A   Clear
10:15 PM 66.2 °F 51.8 °F 60% 29.91 in 10.0 mi Variable 5.8 mph - N/A   Clear
10:35 PM 64.4 °F 51.8 °F 64% 29.91 in 10.0 mi Calm Calm - N/A   Clear
10:55 PM 64.4 °F 51.8 °F 64% 29.91 in 10.0 mi SW 3.5 mph - N/A   Clear
11:15 PM 64.4 °F 51.8 °F 64% 29.91 in 10.0 mi Calm Calm - N/A   Clear
11:35 PM 64.4 °F 53.6 °F 68% 29.91 in 10.0 mi Calm Calm - N/A   Clear
11:55 PM 64.4 °F 53.6 °F 68% 29.90 in 10.0 mi Calm Calm - N/A   Clear